Nome, AK

7:55 PM AKST on February 06, 2016 (GMT -0900)
Nome

Weather History for PAOM - August, 2012

Change the Weather History Date:

Saturday, August 18, 2012

  Actual Average Record
Temperature  
Mean Temperature 51 °F 50 °F  
Max Temperature 52 °F 56 °F 70 °F (1956)
Min Temperature 50 °F 44 °F 27 °F (1966)
Degree Days  
Heating Degree Days 14 15  
Month to date heating degree days 251 258  
Since 1 June heating degree days 1170 1174  
Since 1 July heating degree days 672 658  
Cooling Degree Days 0    
Month to date cooling degree days 0  
Year to date cooling degree days 0  
Since 1 June cooling degree days 0  
Moisture  
Dew Point 51 °F    
Average Humidity 0    
Maximum Humidity 0    
Minimum Humidity 0    
Precipitation  
Precipitation 1.06 in 0.10 in 1.06 in (2012)
Month to date precipitation 2.53 1.90  
Year to date precipitation 11.86 9.13  
Snow  
Snow 0.00 in 0.00 in T in (2003)
Month to date snowfall 0.0 0.0  
Since 1 June snowfall 0.0 0.3  
Since 1 July snowfall 0.0 0.0  
Snow Depth 0.00 in    
Sea Level Pressure  
Sea Level Pressure 29.32 in    
Wind  
Wind Speed 16 mph (ESE)    
Max Wind Speed 26 mph    
Max Gust Speed 32 mph    
Visibility 5 miles    
Events Rain    
T = Trace of Precipitation, MM = Missing Value Source: NWS Daily Summary

Daily Weather History Graph

Daily Weather History Graph

Search for Another Location

Airport or City:

Trip Planner

Search our weather history database for the weather conditions in past years. The results will help you decide how hot, cold, wet, or windy it might be!

Date:

Astronomy

Aug. 18, 2012 Rise Set
Actual Time 7:02 AM AKDT 11:06 PM AKDT
Civil Twilight 5:58 AM AKDT 12:08 AM AKDT
Nautical Twilight 3:57 AM AKDT 2:02 AM AKDT
Astronomical Twilight Sun does not rise Sun does not rise
Moon 9:21 AM AKDT (8/18) 10:19 PM AKDT (8/18)
Length of Visible Light 18h 09m
Length of Day
16h 04m
New Moon, 2% of the Moon is Illuminated
Aug 18
New Moon
Aug 24
First Quarter
Aug 31
Full
Sep 8
Last Quarter
Sep 15
New

Hourly Weather History & Observations

Time (AKDT) Temp. Dew Point Humidity Pressure Visibility Wind Dir Wind Speed Gust Speed Precip Events Conditions
12:08 AM 51.8 °F 51.8 °F 100% 29.44 in 6.0 mi South 9.2 mph - 0.03 in Rain Rain
12:21 AM 51.8 °F 51.8 °F 100% 29.44 in 6.0 mi South 10.4 mph - 0.06 in Rain Rain
12:53 AM 52.0 °F 51.1 °F 97% 29.45 in 8.0 mi South 10.4 mph - 0.10 in Rain Light Rain
1:53 AM 52.0 °F 52.0 °F 100% 29.44 in 5.0 mi SSE 9.2 mph - 0.06 in Rain Rain
2:53 AM 52.0 °F 52.0 °F 100% 29.43 in 7.0 mi SSE 11.5 mph - 0.07 in Rain Light Rain
3:53 AM 52.0 °F 51.1 °F 97% 29.42 in 10.0 mi SSE 16.1 mph - 0.05 in Rain Light Rain
4:05 AM 51.8 °F 51.8 °F 100% 29.41 in 10.0 mi SSE 15.0 mph - 0.00 in Rain Light Rain
4:53 AM 52.0 °F 51.1 °F 97% 29.40 in 6.0 mi SSE 16.1 mph - 0.05 in Rain Rain
5:53 AM 51.1 °F 51.1 °F 100% 29.40 in 5.0 mi SSE 16.1 mph - 0.06 in Rain Rain
6:53 AM 51.1 °F 50.0 °F 96% 29.38 in 9.0 mi SE 18.4 mph - 0.05 in Rain Light Rain
7:53 AM 51.1 °F 50.0 °F 96% 29.36 in 5.0 mi SE 19.6 mph 27.6 mph 0.05 in Rain Rain
8:53 AM 51.1 °F 50.0 °F 96% 29.35 in 6.0 mi SE 19.6 mph 25.3 mph 0.04 in Rain Light Rain
9:53 AM 51.1 °F 48.9 °F 92% 29.35 in 5.0 mi SE 20.7 mph - 0.07 in Rain Light Rain
10:47 AM 51.8 °F 48.2 °F 88% 29.35 in 6.0 mi SE 20.7 mph 27.6 mph 0.05 in Rain Light Rain
10:53 AM 51.1 °F 48.9 °F 92% 29.35 in 6.0 mi SE 21.9 mph 32.2 mph 0.06 in Rain Light Rain
11:53 AM 51.1 °F 50.0 °F 96% 29.35 in 5.0 mi ESE 23.0 mph 29.9 mph 0.06 in Rain Light Rain
12:53 PM 51.1 °F 50.0 °F 96% 29.34 in 6.0 mi ESE 17.3 mph 27.6 mph 0.07 in Rain Light Rain
1:34 PM 51.8 °F 50.0 °F 94% 29.32 in 2.0 mi ESE 24.2 mph 28.8 mph 0.00 in Rain Light Rain
1:53 PM 51.1 °F 50.0 °F 96% 29.33 in 3.0 mi ESE 20.7 mph 26.5 mph 0.02 in Rain Light Rain
2:08 PM 51.8 °F 50.0 °F 94% 29.32 in 7.0 mi ESE 20.7 mph 28.8 mph 0.00 in Rain Light Rain
2:38 PM 51.8 °F 50.0 °F 94% 29.32 in 1.8 mi East 21.9 mph - 0.00 in Rain Light Rain
2:53 PM 51.1 °F 50.0 °F 96% 29.32 in 2.0 mi East 23.0 mph 29.9 mph 0.00 in Rain Light Rain
3:18 PM 51.8 °F 50.0 °F 94% 29.31 in 3.0 mi ESE 20.7 mph 28.8 mph 0.01 in Rain Light Rain
3:53 PM 51.1 °F 50.0 °F 96% 29.31 in 1.5 mi ESE 20.7 mph 27.6 mph 0.03 in Rain Light Rain
4:05 PM 51.8 °F 51.8 °F 100% 29.30 in 2.0 mi ESE 23.0 mph 28.8 mph 0.00 in Rain Light Rain
4:45 PM 51.8 °F 51.8 °F 100% 29.30 in 1.8 mi ESE 21.9 mph 26.5 mph 0.00 in Rain Light Rain
4:53 PM 52.0 °F 51.1 °F 97% 29.30 in 1.8 mi ESE 17.3 mph 25.3 mph 0.00 in Rain Light Rain
5:53 PM 51.1 °F 51.1 °F 100% 29.29 in 1.5 mi ESE 16.1 mph 24.2 mph 0.03 in Rain Light Rain
6:07 PM 51.8 °F 51.8 °F 100% 29.29 in 3.0 mi ESE 15.0 mph 23.0 mph 0.01 in Rain Light Rain
6:33 PM 51.8 °F 51.8 °F 100% 29.29 in 1.8 mi East 15.0 mph - 0.02 in Rain Light Rain
6:42 PM 51.8 °F 51.8 °F 100% 29.29 in 2.0 mi East 16.1 mph 24.2 mph 0.02 in Rain Light Rain
6:53 PM 51.1 °F 51.1 °F 100% 29.29 in 2.0 mi East 16.1 mph 23.0 mph 0.03 in Rain Light Rain
7:20 PM 51.8 °F 51.8 °F 100% 29.28 in 3.0 mi East 17.3 mph - 0.02 in Rain Light Rain
7:25 PM 51.8 °F 51.8 °F 100% 29.28 in 2.5 mi East 17.3 mph - 0.02 in Rain Light Rain
7:43 PM 51.8 °F 51.8 °F 100% 29.28 in 5.0 mi East 17.3 mph 24.2 mph 0.04 in Rain Light Rain
7:50 PM 51.8 °F 51.8 °F 100% 29.28 in 5.0 mi East 18.4 mph 24.2 mph 0.04 in Rain Light Rain
7:53 PM 52.0 °F 51.1 °F 97% 29.28 in 5.0 mi East 15.0 mph - 0.04 in Rain Light Rain
8:05 PM 51.8 °F 51.8 °F 100% 29.27 in 5.0 mi East 18.4 mph 23.0 mph 0.01 in Rain Light Rain
8:15 PM 51.8 °F 51.8 °F 100% 29.27 in 8.0 mi East 16.1 mph - 0.01 in Rain Light Rain
8:53 PM 52.0 °F 51.1 °F 97% 29.27 in 7.0 mi East 13.8 mph - 0.03 in Rain Light Rain
9:16 PM 51.8 °F 51.8 °F 100% 29.26 in 5.0 mi East 18.4 mph 24.2 mph 0.03 in Rain Rain
9:24 PM 51.8 °F 50.0 °F 94% 29.26 in 6.0 mi East 15.0 mph - 0.04 in Rain Rain
9:32 PM 51.8 °F 50.0 °F 94% 29.26 in 6.0 mi East 16.1 mph - 0.05 in Rain Rain
9:53 PM 52.0 °F 50.0 °F 93% 29.26 in 7.0 mi East 15.0 mph - 0.09 in Rain Light Rain
10:53 PM 52.0 °F 50.0 °F 93% 29.26 in 9.0 mi East 18.4 mph - 0.02 in Rain Light Rain
11:00 PM 51.8 °F 50.0 °F 94% 29.25 in 9.0 mi East 17.3 mph - 0.01 in Rain Light Rain
11:39 PM 51.8 °F 50.0 °F 94% 29.25 in 9.0 mi East 15.0 mph - 0.02 in Rain Light Rain
11:53 PM 52.0 °F 50.0 °F 93% 29.25 in 8.0 mi East 16.1 mph 25.3 mph 0.03 in Rain Light Rain